[[{"header":{"parameterUnit":"m.s-1","parameterCategory":1,"la1":30.2991,"la2":30.254,"lo1":-89.0895,"lo2":-89.0444,"dy":0.0017,"dx":0.0017,"nx":28,"ny":28,"refTime":"2025-06-18T09:00:00:Z","depth":0,"parameterNumber":2,"parameterNumberName":"U-component_of_WINDS"},"data":[0,0,0,0,0,0,0,0,0,0,0,0,0,0,0,0,0,0,0,0,0,0,0,0,0,0,0,0,0,0,0,0,0,0,0,0,0,0,0,0,0,0,0,0,0,0,0,0,0,0,0,0,0,0,0,0,0,0,3.2626,3.2626,0,3.2641,3.2641,3.2641,3.2577,3.2576,3.2574,3.2572,3.2587,3.2589,3.2591,0,0,0,0,0,0,0,0,0,0,0,0,0,3.2537,3.2539,3.2626,3.2626,3.2626,3.2641,3.2641,3.2641,3.2578,3.2576,3.2573,3.2571,3.2586,3.2588,3.2591,0,0,0,0,0,0,0,0,0,0,0,0,0,3.2566,3.254,3.2626,3.2596,3.2594,3.2641,3.2641,3.2641,3.2578,3.2575,3.2573,3.257,3.2585,3.2588,3.2591,3.2667,0,0,3.2601,3.2603,0,0,0,0,0,0,0,0,3.2565,3.257,3.26,3.2598,3.2596,3.2604,3.2615,3.265,3.2579,3.2584,3.2572,3.2569,3.2595,3.2597,3.2606,3.2668,3.2668,3.2601,3.2603,3.2605,3.2606,0,0,0,0,0,0,0,3.2563,3.2569,3.2632,3.2601,3.2598,3.2581,3.2582,3.2621,3.2605,3.2583,3.2579,3.2582,3.2593,3.2603,3.2606,3.2669,3.2601,3.2604,3.2606,3.2607,3.2786,3.2788,0,0,0,0,0,0,3.2565,3.2567,3.2631,3.2632,3.2573,3.2585,3.2586,3.2604,3.2604,3.2602,3.2584,3.2579,3.2599,3.2602,3.2606,3.2689,3.2605,3.2608,3.261,3.2783,3.2786,3.2789,0,0,0,0,0,0,3.2564,3.2572,3.263,3.2598,3.2605,3.2589,3.2611,3.2606,3.2616,3.2605,3.2601,3.2598,3.2597,3.2602,3.2651,3.2689,3.2609,3.2612,3.278,3.2784,3.2788,3.286,0,0,0,0,0,0,3.2561,3.2571,3.2602,3.26,3.2607,3.2677,3.2613,3.2608,3.2622,3.2615,3.2617,3.2614,3.2595,3.2646,3.2654,3.2692,3.2615,3.2776,3.2782,3.2787,3.2854,3.2867,3.2877,0,0,0,0,0,3.2558,3.2623,3.2603,3.2611,3.2644,3.2679,3.2683,3.266,3.2626,3.2654,3.2646,3.2614,3.2684,3.2652,3.266,3.27,3.2773,3.278,3.2786,3.2849,3.2864,3.2877,0,0,0,0,0,0,3.2631,3.2622,3.2601,3.2667,3.2674,3.2668,3.2704,3.2678,3.2695,3.2688,3.2658,3.2659,3.2712,3.2711,3.2675,3.2769,3.2723,3.2731,3.2768,3.2782,3.2793,3.2791,3.2617,0,0,0,0,0,3.2654,3.2685,3.2675,3.2734,3.2739,3.2721,3.2736,3.2717,3.2723,3.2726,3.2721,3.2728,3.2751,3.2767,3.2788,3.2854,3.2851,3.2885,3.2897,3.2906,3.2912,3.2941,3.2955,3.281,3.281,3.281,0,0,3.2704,3.2703,3.2724,3.2748,3.2752,3.2781,3.2724,3.276,3.278,3.2731,3.2776,3.2773,3.2778,3.2834,3.2859,3.2835,3.2951,3.2914,3.2921,3.2923,3.2949,3.2963,3.2975,3.2815,3.2814,3.2813,0,0,3.2807,3.2812,3.2858,3.2862,3.2867,3.2854,3.2865,3.2862,3.2857,3.2902,3.2864,3.2888,3.293,3.2933,3.294,3.3039,3.3008,3.3046,3.3104,3.3133,3.3144,3.3154,3.3184,3.3196,3.3054,3.3054,3.3054,0,3.2868,3.2911,3.2885,3.2921,3.2931,3.2887,3.2931,3.2936,3.2948,3.2955,3.2928,3.2975,3.2976,3.3029,3.3053,3.3062,3.307,3.3045,3.3145,3.3154,3.3163,3.3191,3.3203,3.3058,3.3058,3.3057,3.3057,0,3.2982,3.3013,3.3049,3.3059,3.3074,3.3114,3.3092,3.3109,3.3088,3.3076,3.3119,3.3118,3.3135,3.3147,3.3128,3.3196,3.318,3.315,3.3102,3.3181,3.3207,3.3218,3.3064,3.3063,3.3061,3.306,0,0,3.3134,3.3125,3.3139,3.314,3.314,3.3162,3.3199,3.3214,3.3227,3.3236,3.3262,3.3296,3.3266,3.3274,3.3255,3.328,3.3351,3.3246,3.3245,3.3261,3.342,3.344,3.3453,3.3332,3.3334,3.3336,3.3418,0,3.3231,3.3292,3.3267,3.333,3.3354,3.331,3.3341,3.3343,3.3333,3.3351,3.3339,3.3361,3.3323,3.3326,3.335,3.3338,3.3382,3.3332,3.3353,3.3354,3.3349,3.3468,3.3491,3.3568,3.3428,3.343,3.3431,0,3.3353,3.3364,3.3428,3.3418,3.3427,3.3456,3.3464,3.3484,3.3483,3.3473,3.348,3.3453,3.3484,3.3438,3.3478,3.3445,3.3451,3.3446,3.3449,3.3447,3.3395,3.3465,3.3593,3.3603,3.3448,3.3447,3.3446,0,3.345,3.3481,3.3522,3.3525,3.3516,3.3536,3.3533,3.353,3.3539,3.3547,3.3551,3.3563,3.3569,3.3578,3.3553,3.3523,3.3595,3.3548,3.3584,3.3585,3.36,3.3599,3.3726,3.3611,3.3611,3.361,3.361,0,3.3559,3.3599,3.3564,3.3589,3.3631,3.3601,3.3643,3.3635,3.3631,3.3652,3.3616,3.3636,3.3604,3.3619,3.3601,3.3633,3.3638,3.3628,3.3622,3.3629,3.363,3.3631,3.3624,3.3614,3.3613,3.3612,3.3612,0,3.3674,3.3653,3.3694,3.368,3.3678,3.3708,3.3696,3.3717,3.3703,3.3728,3.3733,3.371,3.3726,3.3703,3.3718,3.3704,3.3748,3.3736,3.3748,3.3743,3.3779,3.3774,3.3909,3.3923,3.3803,3.3804,3.3805,0,3.3744,3.3772,3.3761,3.3771,3.377,3.3788,3.3796,3.3766,3.3776,3.3774,3.3794,3.3807,3.3815,3.3842,3.3826,3.3835,3.382,3.3866,3.3821,3.3825,3.3815,3.3812,3.3812,3.3875,3.3876,3.3878,3.3879,0,3.3867,3.3853,3.3866,3.3874,3.3884,3.3889,3.3891,3.3902,3.387,3.3882,3.3897,3.3903,3.3915,3.3927,3.3931,3.3926,3.3895,3.3893,3.3901,3.3907,3.3911,3.3904,3.3769,3.389,3.3889,3.3888,3.3887,3.3887,3.3958,3.3979,3.3972,3.3986,3.3984,3.3986,3.4002,3.3989,3.4001,3.4008,3.399,3.4008,3.4002,3.4004,3.4001,3.4013,3.3993,3.4006,3.4008,3.4011,3.4014,3.3912,3.4015,3.4014,3.4014,3.4014,3.4013,0,3.4075,3.4067,3.408,3.4082,3.4092,3.4063,3.4063,3.4072,3.4088,3.4085,3.4093,3.4107,3.4117,3.41,3.4106,3.4118,3.4104,3.4121,3.4118,3.4116,3.4035,3.4025,3.4131,3.4131,3.4131,3.4131,3.4131,3.4131,3.4136,3.4169,3.4154,3.4183,3.4176,3.4192,3.4194,3.4193,3.419,3.4207,3.4214,3.4203,3.4193,3.4197,3.4203,3.4198,3.42,3.422,3.421,3.4134,3.4122,3.4111,3.4101,3.4222,3.4222,3.4289,3.4289,3.429]},{"header":{"parameterUnit":"m.s-1","parameterCategory":1,"la1":30.2991,"la2":30.254,"lo1":-89.0895,"lo2":-89.0444,"dy":0.0017,"dx":0.0017,"nx":28,"ny":28,"refTime":"2025-06-18T09:00:00:Z","depth":0,"parameterNumber":3,"parameterNumberName":"V-component_of_WINDS"},"data":[0,0,0,0,0,0,0,0,0,0,0,0,0,0,0,0,0,0,0,0,0,0,0,0,0,0,0,0,0,0,0,0,0,0,0,0,0,0,0,0,0,0,0,0,0,0,0,0,0,0,0,0,0,0,0,0,0,0,4.3819,4.3821,0,4.3987,4.3988,4.399,4.4023,4.4022,4.4021,4.402,4.4186,4.4192,4.4197,0,0,0,0,0,0,0,0,0,0,0,0,0,4.3522,4.3528,4.3819,4.3821,4.3823,4.3986,4.3989,4.3991,4.4024,4.4022,4.402,4.4019,4.4184,4.4191,4.4198,0,0,0,0,0,0,0,0,0,0,0,0,0,4.3666,4.3529,4.3819,4.386,4.3865,4.3986,4.3989,4.3991,4.4024,4.4022,4.402,4.4018,4.4182,4.419,4.4199,4.4289,0,0,4.4224,4.4228,0,0,0,0,0,0,0,0,4.3658,4.3677,4.3851,4.3857,4.3863,4.3982,4.3945,4.4091,4.4024,4.3963,4.4019,4.4017,4.4119,4.4133,4.4168,4.4297,4.4304,4.4225,4.423,4.4234,4.4236,0,0,0,0,0,0,0,4.3648,4.367,4.3885,4.3854,4.3861,4.3867,4.3886,4.3973,4.405,4.3969,4.3971,4.3991,4.4122,4.416,4.4173,4.4307,4.4225,4.4232,4.4238,4.4241,4.4516,4.4518,0,0,0,0,0,0,4.3632,4.3662,4.388,4.389,4.3754,4.3874,4.3895,4.3946,4.4049,4.4063,4.3992,4.3992,4.4147,4.4163,4.4178,4.429,4.4234,4.4242,4.4247,4.4514,4.4516,4.4519,0,0,0,0,0,0,4.3625,4.3651,4.3873,4.3777,4.3806,4.3882,4.3938,4.395,4.3988,4.4067,4.4081,4.4017,4.4146,4.4167,4.4261,4.4297,4.4246,4.4253,4.4511,4.4514,4.4518,4.4515,0,0,0,0,0,0,4.3617,4.3648,4.3685,4.3778,4.3811,4.3955,4.3941,4.3955,4.4003,4.4004,4.4094,4.4107,4.4146,4.4249,4.427,4.4307,4.426,4.4508,4.4513,4.4516,4.4513,4.4518,4.4523,0,0,0,0,0,4.3606,4.3678,4.3687,4.3713,4.3859,4.3957,4.3976,4.402,4.4006,4.4043,4.4093,4.4104,4.4289,4.4258,4.4282,4.4323,4.4506,4.4511,4.4516,4.451,4.4517,4.4523,0,0,0,0,0,0,4.3586,4.369,4.3702,4.3806,4.3873,4.3963,4.401,4.4026,4.4097,4.4095,4.4145,4.4165,4.4256,4.4299,4.4262,4.4415,4.4397,4.4407,4.4384,4.4391,4.4396,4.4384,4.4267,0,0,0,0,0,4.3594,4.3667,4.3754,4.3837,4.387,4.3934,4.3979,4.4007,4.4077,4.4105,4.4163,4.4229,4.4302,4.4349,4.442,4.4519,4.4538,4.4558,4.4563,4.4567,4.4575,4.4628,4.4638,4.4535,4.4535,4.4535,0,0,4.3611,4.3677,4.372,4.3834,4.3889,4.3962,4.3958,4.4035,4.4088,4.4116,4.421,4.4254,4.4331,4.4427,4.4473,4.4466,4.4608,4.4574,4.4576,4.4582,4.4635,4.4644,4.4653,4.4539,4.4538,4.4538,0,0,4.3679,4.3737,4.3812,4.3867,4.395,4.3992,4.401,4.4097,4.4128,4.4223,4.4245,4.4308,4.4433,4.4487,4.453,4.4616,4.4628,4.4638,4.4665,4.4716,4.4724,4.4731,4.476,4.4771,4.4645,4.4645,4.4645,0,4.3689,4.3801,4.3848,4.3924,4.3973,4.4002,4.4077,4.4127,4.4229,4.4261,4.4252,4.4409,4.4463,4.4571,4.4592,4.4627,4.4647,4.4628,4.4719,4.4727,4.4735,4.4763,4.4774,4.4646,4.4646,4.4646,4.4646,0,4.3808,4.3885,4.3935,4.4033,4.4088,4.4163,4.4219,4.4268,4.4291,4.4333,4.4427,4.4493,4.4578,4.4606,4.4629,4.4717,4.471,4.471,4.4692,4.4744,4.4772,4.4783,4.4647,4.4646,4.4646,4.4646,0,0,4.3868,4.3991,4.4009,4.4053,4.4146,4.4206,4.4281,4.4365,4.4405,4.4474,4.4536,4.4641,4.4641,4.469,4.4719,4.4764,4.4826,4.4758,4.476,4.4767,4.4925,4.4924,4.4936,4.4835,4.4837,4.4839,4.4918,0,4.3946,4.4083,4.4127,4.424,4.4311,4.4339,4.4404,4.4467,4.4508,4.4572,4.4616,4.4689,4.4684,4.4714,4.476,4.4808,4.4858,4.4803,4.4892,4.4894,4.4871,4.4951,4.4951,4.5023,4.4929,4.4931,4.4933,0,4.4056,4.4127,4.4248,4.4331,4.4362,4.442,4.4499,4.4561,4.4632,4.4658,4.4713,4.4738,4.4815,4.4793,4.4899,4.4861,4.49,4.4929,4.4932,4.4942,4.4916,4.4961,4.5047,4.5057,4.495,4.4949,4.4947,0,4.4086,4.4212,4.43,4.4337,4.4437,4.4476,4.4519,4.4589,4.4636,4.4704,4.4735,4.4811,4.4853,4.491,4.4954,4.4935,4.5056,4.5038,4.5078,4.5077,4.5102,4.51,4.5194,4.5128,4.5128,4.5128,4.5128,0,4.4168,4.424,4.4315,4.4369,4.445,4.4498,4.4577,4.4621,4.4682,4.4743,4.4772,4.4829,4.4884,4.4947,4.4982,4.5064,4.5082,4.5104,4.5113,4.5102,4.5099,4.5127,4.5123,4.5131,4.513,4.513,4.5129,0,4.4216,4.4269,4.4367,4.4453,4.4476,4.4531,4.4604,4.4656,4.4698,4.4775,4.4796,4.4861,4.4937,4.4987,4.5084,4.5107,4.5195,4.5203,4.5172,4.5176,4.5213,4.5208,4.5328,4.5346,4.5268,4.5269,4.5269,0,4.4265,4.4321,4.4413,4.4456,4.45,4.457,4.4618,4.4667,4.4716,4.48,4.4842,4.492,4.4985,4.5105,4.5159,4.5233,4.5242,4.5279,4.5253,4.524,4.5241,4.5237,4.5242,4.5282,4.5283,4.5284,4.5284,0,4.4344,4.4368,4.4437,4.4515,4.4572,4.4635,4.4698,4.4732,4.4791,4.4844,4.4923,4.4973,4.5072,4.5149,4.5227,4.5269,4.5286,4.5292,4.5305,4.5294,4.5273,4.5284,4.5182,4.5289,4.5288,4.5288,4.5288,4.5287,4.4394,4.4444,4.4517,4.4592,4.4645,4.4703,4.4756,4.4804,4.4871,4.4956,4.498,4.5062,4.513,4.5237,4.528,4.5344,4.5339,4.5358,4.5363,4.5367,4.5367,4.5263,4.5358,4.5358,4.5358,4.5358,4.5358,0,4.4474,4.4522,4.4591,4.4679,4.4737,4.4749,4.4819,4.4867,4.4939,4.5001,4.5065,4.5154,4.5228,4.5288,4.5364,4.5403,4.5412,4.5421,4.5418,4.5427,4.5367,4.5347,4.5412,4.5412,4.5412,4.5412,4.5412,4.5412,4.4523,4.4609,4.464,4.4752,4.4799,4.488,4.4918,4.4971,4.5021,4.512,4.5182,4.5221,4.5282,4.5363,4.543,4.5446,4.5472,4.5479,4.5496,4.5438,4.5432,4.5426,4.5408,4.5484,4.5484,4.5551,4.5552,4.5552]}]]